Location: Palm Bay
(27.9400°N, 80.7200°W)
Time: 21:36:03
(UTC-05:00)

Daily predictions for brighter satellites

Satellite Brightness Start Highest point End
(mag) Time Altitude Azimuth Time Altitude Azimuth Time Altitude Azimuth
Cosmos 1745 Rocket 4.2 18:30:19 10° S 18:36:40 87° W 18:42:59 10° N
CENTAUR R/B 3.2 18:28:45 10° NNW 18:36:52 72° ENE 18:45:13 10° SE
Cosmos 1346 Rocket 3.1 18:35:26 10° NNW 18:39:19 73° W 18:43:10 10° S
Cosmos 2151 Rocket 3.8 18:35:00 10° SSE 18:39:19 49° E 18:43:41 10° NNE
NOAA 12 4.4 18:40:21 10° SE 18:45:21 44° ENE 18:50:23 10° N
Okean 1 Rocket 4.4 18:43:07 10° SE 18:46:15 19° E 18:49:24 10° NE
Cosmos 1386 Rocket 4.5 18:40:50 10° S 18:47:00 85° E 18:53:04 10° N
ATLAS CENTAUR R/B 3.8 18:41:37 10° S 18:47:27 20° SE 18:50:34 10° E
METEOR-M 4.4 18:43:36 10° SSE 18:48:41 47° ENE 18:53:47 10° N
Cosmos 1812 2.8 18:45:32 10° N 18:49:19 53° E 18:53:04 10° SSE
Cosmos 1954 Rocket 4.1 18:44:47 10° S 18:49:46 53° ESE 18:54:49 10° NNE
Cosmos 2219 4.4 18:48:03 10° SSE 18:52:14 21° E 18:56:24 10° NE
GPS 2-04 Rocket1 3.2 18:48:06 10° SW 18:52:15 52° SSE 18:56:14 11° ENE
GEOS 3 Rocket 3.8 18:52:14 10° NNE 18:57:30 81° WNW 19:02:47 10° SW
Abrixas rocket 3.6 18:55:29 10° S 18:58:14 24° SE 19:00:14 14° E
GOES 2 Rocket 3.4 18:55:08 10° W 19:00:17 66° SSW 19:04:22 11° ESE
Cosmos 2360 Rocket 3.5 18:58:06 10° NNE 19:02:04 19° ENE 19:05:08 13° E
Cosmos 1980 Rocket 3.6 18:57:35 10° NW 19:02:54 42° WSW 19:08:14 10° S
SL-8 R/B 3.7 19:00:43 10° NW 19:05:33 73° NE 19:10:21 10° SE
Cosmos 1602 3.8 19:04:23 10° S 19:08:06 50° E 19:11:52 10° NNE
Cosmos 1633 2.6 19:05:00 10° S 19:08:36 56° E 19:12:12 10° NNE
Helios 1B rocket 3.7 19:07:49 12° NE 19:10:32 21° E 19:13:39 10° SE
FREGAT/IRIS 2.5 19:10:53 10° SSE 19:13:55 68° ENE 19:16:59 10° N
ALOS 2.5 19:12:00 10° SE 19:16:24 44° ENE 19:20:50 10° N
Cosmos 1833 4.4 19:11:52 10° SSW 19:17:36 79° WNW 19:23:17 10° NNE
CZ-3C R/B 2.4 19:12:30 10° WSW 19:18:13 24° S 19:20:02 14° SE
H-2A R/B 3.8 19:16:45 10° SSE 19:19:21 17° SE 19:20:31 16° ESE
Cosmos 1536 Rocket 3.5 19:24:23 10° N 19:28:52 90° W 19:33:20 10° S
H-II Stage 2 3.4 19:27:52 10° SSW 19:29:34 13° S 19:29:54 13° SSE
ASTRO E2 2.7 19:25:38 10° WNW 19:29:41 80° SSW 19:31:26 32° ESE
SJ-6B 3.0 19:25:58 10° S 19:30:02 75° W 19:34:02 10° NNW
Cosmos 1741 Rocket 4.0 19:24:58 10° S 19:30:04 57° ESE 19:35:11 10° NNE
FengYun 1-2 T 4.1 19:26:35 10° SSE 19:31:58 64° ENE 19:37:24 10° N
Resurs 01 Rocket 1.6 19:31:36 10° SSE 19:35:53 54° ENE 19:40:12 10° N
SL-16 R/B 2.5 19:30:31 10° NNW 19:36:10 70° WSW 19:41:46 10° S
DNEPR-1 R/B 3.4 19:35:07 10° NNW 19:39:19 88° ENE 19:42:59 15° SSE
Gbstr 26 Del rocket 4.3 19:38:00 10° WSW 19:41:28 30° NW 19:43:57 15° NNE
Cosmos 1340 2.7 19:41:05 10° N 19:44:52 80° W 19:48:38 10° S
Meteor 1-5 Rocket 4.4 19:39:40 10° S 19:45:27 54° E 19:51:13 10° NNE
Cosmos 1238 Rocket 2.5 19:43:11 10° N 19:45:30 52° NNW 19:45:30 52° NNW
Meteor 1-19 Rocket 4.1 19:40:42 10° N 19:46:23 72° E 19:52:09 10° SSE
FUSE 4.5 19:41:32 10° WSW 19:46:39 46° SSE 19:48:11 36° SE
Atlas Centaur 2 4.2 19:45:08 10° S 19:48:14 14° SSE 19:48:37 14° SSE
Hubble Space Telescope 1.9 19:46:17 10° SW 19:49:46 30° SSE 19:49:46 30° SSE
Cosmos 2181 Rocket 4.0 19:45:47 10° N 19:52:04 84° W 19:58:25 10° S
Cosmos 2322 Rocket 3.3 19:48:40 10° NW 19:53:58 44° WSW 19:59:15 10° S
Cosmos 1536 3.1 19:51:21 10° SSW 19:55:18 67° W 19:59:17 10° N
Tiangong 2 3.6 19:53:45 10° NNW 19:54:34 15° NNW 19:54:34 15° NNW
Resurs 1-3 3.4 19:55:14 17° SSE 19:58:34 87° ENE 20:02:58 10° N
Delta R/B 3.7 19:48:04 10° W 20:00:08 80° S 20:00:42 66° ESE
Meteor 1-13 Rocket 4.4 19:55:17 10° NNW 20:00:49 70° W 20:06:27 10° S
FENGYUN 3A 4.1 19:56:22 10° S 20:01:41 62° W 20:07:03 10° NNW
Cosmos 2074 Rocket 3.9 19:56:48 10° S 20:03:02 88° E 20:09:20 10° N
Cosmos 2184 Rocket 3.9 19:57:23 10° S 20:03:44 86° E 20:10:03 10° N
SL-19 R/B 4.4 19:59:47 10° S 20:05:19 75° WSW 20:11:07 10° NNW
Cosmos 2322 3.6 20:01:12 10° NNW 20:06:54 67° ENE 20:07:30 62° ESE
H-2A R/B 3.4 20:10:08 52° W 20:10:08 52° W 20:13:29 10° NNW
Spot 2 Rocket 3.9 20:06:52 10° S 20:11:50 61° WSW 20:16:50 10° NNW
Cosmos 1461 4.1 20:08:19 10° NW 20:12:08 39° WSW 20:13:35 29° SSW
Meteor 1-23 Rocket 4.1 20:07:01 10° N 20:12:47 70° E 20:12:58 70° E
COSMOS 2428 4.2 20:14:34 10° N 20:16:58 24° NNE 20:16:58 24° NNE
Meteor 2-4 Rocket 3.6 20:14:58 10° N 20:20:27 77° W 20:22:38 37° S
Cosmos 2219 4.5 20:30:43 10° SW 20:36:01 38° WNW 20:41:01 11° N
Cosmos 2360 Rocket 3.2 20:40:51 10° NW 20:46:10 43° WSW 20:47:03 40° SW
ATLAS 2A CENTAUR R/B 3.6 21:04:39 10° W 21:07:24 41° SW 21:07:24 41° SW
CZ-3 Stage 3 4.3 21:23:14 10° WSW 21:44:41 52° SW 21:44:41 52° SW
